Taos, NM

1:37 AM MDT on May 25, 2017 (GMT -0600)
Taos Municipal

Weather History for KSKX - July, 2015

Change the Weather History Date:

Friday, July 17, 2015

  Actual Average Record
Temperature  
Mean Temperature 62 °F -  
Max Temperature 78 °F 82 °F 95 °F (2006)
Min Temperature 46 °F 49 °F 46 °F (1998)
Degree Days  
Heating Degree Days 3    
Growing Degree Days 12 (Base 50)    
Moisture  
Dew Point 39 °F    
Average Humidity 44    
Maximum Humidity 66    
Minimum Humidity 24    
Precipitation  
Precipitation 0.05 in - - ()
Sea Level Pressure  
Sea Level Pressure 30.25 in    
Wind  
Wind Speed 7 mph (WNW)    
Max Wind Speed 20 mph    
Max Gust Speed 24 mph    
Visibility 10 miles    
Events      
Averages and records for this station are not official NWS values.
T = Trace of Precipitation, MM = Missing Value Source: NWS Daily Summary

Daily Weather History Graph

Daily Weather History Graph

Search for Another Location

Airport or City:

Trip Planner

Search our weather history database for the weather conditions in past years. The results will help you decide how hot, cold, wet, or windy it might be!

Date:

Astronomy

Jul. 17, 2015 Rise Set
Actual Time 5:57 AM MDT 8:19 PM MDT
Civil Twilight 5:27 AM MDT 8:49 PM MDT
Nautical Twilight 4:51 AM MDT 9:25 PM MDT
Astronomical Twilight 4:11 AM MDT 10:05 PM MDT
Moon 7:36 AM MDT (7/17) 9:16 PM MDT (7/17)
Length of Visible Light 15h 21m
Length of Day
14h 22m
Waxing Crescent, 3% of the Moon is Illuminated
Jul 17
Waxing Crescent
Jul 23
First Quarter
Jul 31
Full
Aug 6
Last Quarter
Aug 14
New

Hourly Weather History & Observations

Time (MDT) Temp. Windchill Dew Point Humidity Pressure Visibility Wind Dir Wind Speed Gust Speed Precip Events Conditions
12:15 AM 57.2 °F - 39.2 °F 51% 30.27 in 10.0 mi NNE 6.9 mph - N/A   Clear
12:35 AM 57.2 °F - 39.2 °F 51% 30.26 in 10.0 mi ENE 5.8 mph - N/A   Clear
12:55 AM 55.4 °F - 39.2 °F 54% 30.26 in 10.0 mi ENE 5.8 mph - N/A   Clear
1:15 AM 53.6 °F - 39.2 °F 58% 30.26 in 10.0 mi ENE 8.1 mph - N/A   Clear
1:35 AM 53.6 °F - 39.2 °F 58% 30.25 in 10.0 mi Calm Calm - N/A   Clear
1:55 AM 51.8 °F - 39.2 °F 62% 30.26 in 10.0 mi Calm Calm - N/A   Clear
2:15 AM 53.6 °F - 39.2 °F 58% 30.26 in 10.0 mi North 4.6 mph - N/A   Scattered Clouds
2:35 AM 53.6 °F - 37.4 °F 54% 30.26 in 10.0 mi ENE 3.5 mph - N/A   Partly Cloudy
2:55 AM 51.8 °F - 37.4 °F 58% 30.26 in 10.0 mi NNE 6.9 mph - N/A   Clear
3:15 AM 51.8 °F - 37.4 °F 58% 30.25 in 10.0 mi NNE 3.5 mph - N/A   Clear
3:35 AM 51.8 °F - 37.4 °F 58% 30.25 in 10.0 mi ENE 3.5 mph - N/A   Clear
3:55 AM 46.4 °F 45.2 °F 35.6 °F 66% 30.26 in 10.0 mi NNW 3.5 mph - N/A   Clear
4:15 AM 46.4 °F - 35.6 °F 66% 30.26 in 10.0 mi Calm Calm - N/A   Clear
4:35 AM 48.2 °F - 35.6 °F 62% 30.26 in 10.0 mi North 5.8 mph - N/A   Clear
4:55 AM 48.2 °F - 37.4 °F 66% 30.26 in 10.0 mi North 3.5 mph - N/A   Clear
5:15 AM 48.2 °F - 35.6 °F 62% 30.27 in 10.0 mi NNE 5.8 mph - N/A   Clear
5:35 AM 48.2 °F - 35.6 °F 62% 30.27 in 10.0 mi NE 9.2 mph - N/A   Clear
5:55 AM 50.0 °F - 37.4 °F 62% 30.28 in 10.0 mi NE 5.8 mph - N/A   Clear
6:15 AM 50.0 °F - 35.6 °F 58% 30.28 in 10.0 mi Calm Calm - N/A   Clear
6:35 AM 50.0 °F - 35.6 °F 58% 30.28 in 10.0 mi NNW 4.6 mph - N/A   Clear
6:55 AM 48.2 °F - 37.4 °F 66% 30.28 in 10.0 mi North 3.5 mph - N/A   Clear
7:15 AM 51.8 °F - 39.2 °F 62% 30.28 in 10.0 mi North 4.6 mph - N/A   Clear
7:35 AM 53.6 °F - 39.2 °F 58% 30.28 in 10.0 mi North 5.8 mph - N/A   Clear
7:55 AM 55.4 °F - 39.2 °F 54% 30.28 in 10.0 mi North 5.8 mph - N/A   Clear
8:15 AM 57.2 °F - 39.2 °F 51% 30.28 in 10.0 mi NNW 6.9 mph - N/A   Clear
8:35 AM 60.8 °F - 39.2 °F 45% 30.28 in 10.0 mi NNW 5.8 mph - N/A   Clear
8:55 AM 62.6 °F - 41.0 °F 45% 30.28 in 10.0 mi NNW 5.8 mph - N/A   Clear
9:15 AM 64.4 °F - 42.8 °F 45% 30.28 in 10.0 mi NW 3.5 mph - N/A   Clear
9:35 AM 66.2 °F - 42.8 °F 43% 30.28 in 10.0 mi NW 3.5 mph - N/A   Clear
9:55 AM 69.8 °F - 42.8 °F 38% 30.27 in 10.0 mi Calm Calm - N/A   Clear
10:15 AM 71.6 °F - 41.0 °F 33% 30.27 in 10.0 mi Calm Calm - N/A   Clear
10:35 AM 73.4 °F - 42.8 °F 33% 30.27 in 10.0 mi WSW 3.5 mph - N/A   Clear
10:55 AM 73.4 °F - 39.2 °F 29% 30.27 in 10.0 mi SW 5.8 mph - N/A   Clear
11:15 AM 75.2 °F - 41.0 °F 29% 30.27 in 10.0 mi WSW 6.9 mph - N/A   Clear
11:35 AM 75.2 °F - 41.0 °F 29% 30.26 in 10.0 mi SSW 6.9 mph - N/A   Clear
11:55 AM 75.2 °F - 42.8 °F 31% 30.26 in 10.0 mi SSW 11.5 mph 17.3 mph N/A   Clear
12:15 PM 77.0 °F - 42.8 °F 29% 30.25 in 10.0 mi SW 12.7 mph 18.4 mph N/A   Clear
12:35 PM 77.0 °F - 41.0 °F 28% 30.25 in 10.0 mi SW 12.7 mph 17.3 mph N/A   Clear
12:55 PM 78.8 °F - 42.8 °F 28% 30.25 in 10.0 mi SW 16.1 mph 20.7 mph N/A   Clear
1:15 PM 78.8 °F - 39.2 °F 24% 30.24 in 10.0 mi SW 18.4 mph 23.0 mph N/A   Clear
1:35 PM 77.0 °F - 37.4 °F 24% 30.23 in 10.0 mi SW 18.4 mph 24.2 mph N/A   Clear
1:55 PM 77.0 °F - 37.4 °F 24% 30.23 in 10.0 mi SW 19.6 mph - N/A   Clear
2:15 PM 77.0 °F - 39.2 °F 26% 30.22 in 10.0 mi SW 18.4 mph 21.9 mph N/A   Clear
2:35 PM 77.0 °F - 39.2 °F 26% 30.22 in 10.0 mi SW 17.3 mph - N/A   Clear
2:55 PM 77.0 °F - 39.2 °F 26% 30.22 in 10.0 mi SW 18.4 mph 24.2 mph N/A   Clear
3:15 PM 75.2 °F - 39.2 °F 27% 30.22 in 10.0 mi SW 18.4 mph 23.0 mph N/A   Clear
3:35 PM 75.2 °F - 39.2 °F 27% 30.22 in 10.0 mi SW 19.6 mph - N/A   Scattered Clouds
3:55 PM 75.2 °F - 41.0 °F 29% 30.22 in 10.0 mi SW 19.6 mph 24.2 mph N/A   Scattered Clouds
4:15 PM 73.4 °F - 41.0 °F 31% 30.22 in 10.0 mi WSW 17.3 mph 23.0 mph N/A   Mostly Cloudy
4:35 PM 73.4 °F - 41.0 °F 31% 30.22 in 10.0 mi WSW 13.8 mph - N/A   Mostly Cloudy
4:55 PM 73.4 °F - 41.0 °F 31% 30.21 in 10.0 mi WSW 18.4 mph 21.9 mph N/A   Mostly Cloudy
5:15 PM 73.4 °F - 41.0 °F 31% 30.21 in 10.0 mi WSW 17.3 mph 20.7 mph N/A   Partly Cloudy
5:35 PM 71.6 °F - 39.2 °F 31% 30.20 in 10.0 mi West 10.4 mph - N/A   Mostly Cloudy
5:55 PM 71.6 °F - 37.4 °F 29% 30.19 in 10.0 mi West 8.1 mph - N/A   Overcast
6:15 PM 71.6 °F - 37.4 °F 29% 30.20 in 10.0 mi West 16.1 mph 24.2 mph N/A   Overcast
6:35 PM 69.8 °F - 39.2 °F 33% 30.21 in 10.0 mi West 13.8 mph - N/A   Overcast
6:55 PM 64.4 °F - 41.0 °F 42% 30.22 in 10.0 mi WSW 5.8 mph 18.4 mph N/A   Mostly Cloudy
7:15 PM 66.2 °F - 39.2 °F 37% 30.21 in 10.0 mi SW 5.8 mph - N/A   Overcast
7:35 PM 66.2 °F - 41.0 °F 40% 30.21 in 10.0 mi ESE 10.4 mph - N/A   Overcast
7:55 PM 66.2 °F - 39.2 °F 37% 30.21 in 10.0 mi Calm Calm - N/A   Overcast
8:15 PM 64.4 °F - 39.2 °F 40% 30.21 in 10.0 mi Calm Calm - N/A   Partly Cloudy
8:35 PM 64.4 °F - 39.2 °F 40% 30.21 in 10.0 mi Calm Calm - N/A   Clear
8:55 PM 62.6 °F - 39.2 °F 42% 30.21 in 10.0 mi Calm Calm - N/A   Clear
9:15 PM 60.8 °F - 39.2 °F 45% 30.22 in 10.0 mi Calm Calm - N/A   Clear
9:35 PM 60.8 °F - 39.2 °F 45% 30.23 in 10.0 mi Calm Calm - N/A   Clear
9:55 PM 59.0 °F - 37.4 °F 45% 30.23 in 10.0 mi Calm Calm - N/A   Clear
10:15 PM 57.2 °F - 37.4 °F 48% 30.24 in 10.0 mi ESE 8.1 mph - N/A   Clear
10:35 PM 55.4 °F - 37.4 °F 51% 30.25 in 10.0 mi ESE 5.8 mph - N/A   Clear
10:55 PM 55.4 °F - 37.4 °F 51% 30.26 in 10.0 mi East 8.1 mph - N/A   Clear
11:15 PM 55.4 °F - 37.4 °F 51% 30.27 in 10.0 mi ENE 6.9 mph - N/A   Clear
11:35 PM 55.4 °F - 35.6 °F 47% 30.28 in 10.0 mi East 4.6 mph - N/A   Clear
11:55 PM 55.4 °F - 35.6 °F 47% 30.27 in 10.0 mi ENE 3.5 mph - N/A   Clear